Regional Weather Roundup
Issued by NWS Little Rock, AR

Home | Current Version | Previous Version | Text Only | Print | Product List | Glossary Off
Versions: 1 2 3 4 5 6 7 8 9 10 11 12 13 14 15 16 17 18 19 20 21 22 23 24 25 26 27 28 29 30 31 32 33 34 35 36 37 38 39 40 41 42 43 44 45 46 47 48 49 50

000
ASUS44 KLZK 292205
RWRLZK

WEATHER ROUNDUP FOR ARKANSAS
NATIONAL WEATHER SERVICE LITTLE ROCK AR
500 PM CDT TUE JUL 29 2014

NOTE: "FAIR" INDICATES FEW OR NO CLOUDS BELOW 12,000 FEET WITH NO
SIGNIFICANT WEATHER AND/OR OBSTRUCTIONS TO VISIBILITY.

ARZ001-003-010-029-292300-
NORTHWEST ARKANSAS

CITY           SKY/WX    TMP DP  RH WIND       PRES   REMARKS
FAYETTEVILLE   MOSUNNY   83  61  47 W8        30.14S
FORT SMITH     CLOUDY    88  62  41 NW8       30.08F HX  88
HARRISON       SUNNY     82  55  39 VRB3      30.14F
BENTONVILLE    PTSUNNY   81  57  44 NW7       30.16S
ROGERS         PTSUNNY   79  59  50 NW8       30.15F
SILOAM SPGS    MOSUNNY   82  59  44 N8        30.15F
HIGHFILL       PTSUNNY   81  58  45 NW8       30.14F
SPRINGDALE     PTSUNNY   82  61  47 NW9       30.16S
$$

ARZ004-005-016-292300-
NORTH CENTRAL ARKANSAS

CITY           SKY/WX    TMP DP  RH WIND       PRES   REMARKS
BATESVILLE     MOSUNNY   81  57  44 W3        30.11F
FLIPPIN        SUNNY     84  54  34 N8        30.12F
MTN HOME       MOSUNNY   81  58  45 S6        30.11F
$$

ARZ040-041-292300-
WEST CENTRAL ARKANSAS

CITY           SKY/WX    TMP DP  RH WIND       PRES   REMARKS
MENA           MOSUNNY   86  64  48 CALM      30.13S HX  87
MOUNT IDA      PTSUNNY   84  64  50 NE5       30.10S HX  85
$$

ARZ009-017-025-026-028-292300-
NORTHEAST ARKANSAS

CITY           SKY/WX    TMP DP  RH WIND       PRES   REMARKS
CORNING        FAIR      79  57  47 S6        30.12F
JONESBORO      MOSUNNY   79  57  46 NE8       30.11F
NEWPORT        MOSUNNY   79  60  51 E7        30.13F
WALNUT RIDGE   SUNNY     79  57  47 E3        30.11F
BLYTHEVILLE    MOSUNNY   77  57  50 N10       30.12F
$$

ARZ022-023-033-042-044-292300-
CENTRAL ARKANSAS

CITY           SKY/WX    TMP DP  RH WIND       PRES   REMARKS
LITTLE ROCK    MOSUNNY   84  55  36 N9        30.10F
N LITTLE ROCK  MOSUNNY   81  62  51 N5        30.10F
JACKSONVILLE   MOSUNNY   84  60  44 VRB2      30.11F
SEARCY         MOSUNNY   82  60  47 N7        30.11F
HOT SPRINGS    MOSUNNY   84  64  50 VRB5      30.10F HX  85
RUSSELLVILLE   PTSUNNY   84  60  44 CALM      30.10F
CLINTON        FAIR      81  63  54 CALM      30.11F
$$

ARZ036-292300-
EAST ARKANSAS

CITY           SKY/WX    TMP DP  RH WIND       PRES   REMARKS
WEST MEMPHIS   MOSUNNY   80  58  46 N9        30.10F
$$

ARZ050-053-066-070-073-292300-
SOUTHWEST ARKANSAS

CITY           SKY/WX    TMP DP  RH WIND       PRES   REMARKS
ARKADELPHIA    FAIR      85  67  54 NE3       30.09F HX  87
CAMDEN         MOSUNNY   86  61  42 N5        30.08S HX  86
TEXARKANA      SUNNY     88  63  43 N8        30.08F HX  89
EL DORADO      SUNNY     87  64  46 N8        30.08F HX  88
DE QUEEN       MOSUNNY   88  65  46 E3        30.06F HX  90
$$

ARZ056-057-069-292300-
SOUTHEAST ARKANSAS

CITY           SKY/WX    TMP DP  RH WIND       PRES   REMARKS
PINE BLUFF     SUNNY     83  56  39 NE10      30.11S
STUTTGART      SUNNY     81  57  44 N9          N/A
MONTICELLO     SUNNY     84  59  42 N8        30.09S

$$





USA.gov is the U.S. government's official web portal to all federal, state and local government web resources and services.